This demonstration page uses our WeatherBlox Daily Observations layout. Learn more.

Left ArrowRight Arrow

38.80484, -77.04692

Hourly Observations for May 17, 2015

Temp ( °F °C ) Dew Point ( °F °C ) Humidity (%) Winds ( mph kmh ) Pressure ( in mb ) Visibility ( mi km ) Precip ( " mm )
12:52 am 00:52 Cloudy with Light Rain 71 21.7 67 19.4 87 87 SSW 6 9 30.17 1022 7 11 0.04 1.02
1:52 am 01:52 Cloudy 71 21.7 67 19.4 87 87 SSW 3 6 30.16 1021 10 16 0.00 0.03
2:52 am 02:52 Cloudy 70 21.1 66 18.9 87 87 SSW 5 7 30.15 1021 10 16 0.00 0.00
3:52 am 03:52 Cloudy 71 21.7 67 19.4 87 87 Calm 30.15 1021 10 16 0.00 0.00
4:52 am 04:52 Cloudy 71 21.7 67 19.4 87 87 Calm 30.15 1021 9 14 0.00 0.00
5:52 am 05:52 Cloudy 71 21.7 67 19.4 87 87 SSW 3 6 30.15 1021 8 13 0.00 0.00
6:52 am 06:52 Cloudy with Light Rain 71 21.7 67 19.4 87 87 Calm 30.18 1022 8 13 0.00 0.03
7:52 am 07:52 Cloudy 72 22.2 68 20 87 87 Calm 30.20 1023 8 13 0.00 0.03
8:52 am 08:52 Cloudy with Light Rain 73 22.8 69 20.6 87 87 SSW 5 7 30.20 1023 8 13 0.00 0.03
9:52 am 09:52 Cloudy 74 23.3 69 20.6 85 85 S 5 7 30.21 1023 8 13 0.00 0.03
10:52 am 10:52 Mostly Cloudy 77 25 70 21.1 79 79 SSE 5 7 30.21 1023 10 16 0.00 0.00
11:52 am 11:52 Mostly Cloudy 78 25.6 70 21.1 76 76 S 5 7 30.21 1023 10 16 0.00 0.00
12:52 pm 12:52 Mostly Cloudy 81 27.2 71 21.7 72 72 S 7 11 30.19 1022 10 16 0.00 0.00
1:52 pm 13:52 Mostly Cloudy 81 27.2 72 22.2 74 74 S 12 19 30.17 1022 10 16 0.00 0.00
2:40 pm 14:40 Mostly Cloudy 84 29 70 21 62 62 SW 5 7 30.18 1022 10 16 0.00 0.00
2:44 pm 14:44 Mostly Cloudy with Showers Nearby 82 28 70 21 66 66 NNE 8 13 30.18 1022 10 16 0.00 0.00
2:52 pm 14:52 Mostly Cloudy 81 27 70 21 70 70 Calm 30.15 1021 10 16 0.00 0.00
3:52 pm 15:52 Mostly Cloudy 85 29.4 69 20.6 59 59 NNE 5 7 30.14 1021 10 16 0.00 0.00
4:52 pm 16:52 Mostly Cloudy 86 30 67 19.4 53 53 W 8 13 30.14 1021 10 16 0.00 0.00
5:52 pm 17:52 Mostly Cloudy 86 30 66 18.9 51 51 W 7 11 30.12 1020 10 16 0.00 0.00
6:52 pm 18:52 Mostly Cloudy 85 29.4 65 18.3 51 51 WSW 10 17 30.12 1020 10 16 0.00 0.00
7:52 pm 19:52 Mostly Cloudy 83 28.3 65 18.3 55 55 SW 6 9 30.12 1020 10 16 0.00 0.00
8:52 pm 20:52 Mostly Cloudy 81 27.2 66 18.9 61 61 SSW 3 6 30.14 1021 10 16 0.00 0.00
9:52 pm 21:52 Mostly Cloudy 79 26.1 67 19.4 67 67 S 3 6 30.14 1021 10 16 0.00 0.00
10:52 pm 22:52 Mostly Cloudy 77 25 67 19.4 71 71 S 3 6 30.15 1021 10 16 0.00 0.00
11:52 pm 23:52 Cloudy 77 25 69 20.6 77 77 S 5 7 30.15 1021 10 16 0.00 0.00

Powered by AerisWeather